User: anonymous   Login
Location: ?
(35.4064°N, 139.3593°E)
Time: 17:38:12
(UTC+00:00)
Language:

Cosmos 2278 Rocket - Orbit

View from above orbital plane
View from above orbital plane
View from above satellite
View from above satellite

Ground track
Ground track

The orbit data is extracted from the following two-line orbital elements,

1 23088U 94023B   24170.81127666 -.00000202  00000-0 -79805-4 0  9999
2 23088  71.0001 311.4490 0003820 209.3761 150.7147 14.14848039557133
Epoch (UTC): 18 June 2024 19:28:14
Eccentricity: 0.0003820
inclination: 71.0001°
perigee height: 840 km
apogee height: 845 km
right ascension of ascending node: 311.4490°
argument of perigee: 209.3761°
revolutions per day: 14.14848039
mean anomaly at epoch: 150.7147°
orbit number at epoch: 55713

The dashed part of the orbit path shows where the satellite is in the earth's shadow,  

DLR